Other Public Products
Issued by NWS Grand Forks, ND

Home | Current Version | Previous Version | Text Only | Print | Product List | Glossary Off
Versions: 1 2 3 4 5 6 7 8 9 10 11 12 13 14 15 16 17 18 19 20 21 22 23 24 25 26 27 28 29 30 31 32 33 34 35 36 37 38 39 40 41 42 43 44 45 46 47 48 49 50

000
FPUS83 KFGF 291910
OPUFGF
PRAIRIE TO PINES WEATHER ROUNDUP
NATIONAL WEATHER SERVICE EASTERN NORTH DAKOTA/GRAND FORKS ND
200 PM CDT THU SEP 29 2016

 **SATELLITE DATA USED TO AUGMENT SKY COVER AT AUTOMATED STATIONS**
 *****  WEATHER ACROSS EASTERN NORTH DAKOTA  *****

CITY           SKY/WX    TMP DP  RH WIND       PRES   REMARKS
GRAND FORKS    PTSUNNY   64  46  52 SE9       30.44F
GRAND FORKS AF MOSUNNY   64  47  54 S7        30.44F
GRAND CITY NWS   N/A     63 N/A N/A S5          N/A
BUXTON         NOT AVBL
DEVILS LAKE    SUNNY     63  49  60 SE13G20   30.40F
FARGO          MOSUNNY   66  45  46 SE12      30.44F
WAHPETON ARPT  CLOUDY    63  43  48 SE12      30.45F
$$

 *****  WEATHER ACROSS CENTRAL AND WESTERN NORTH DAKOTA  *****

CITY           SKY/WX    TMP DP  RH WIND       PRES   REMARKS
JAMESTOWN      MOSUNNY   65  49  56 S10       30.39F
BISMARCK       SUNNY     68  46  45 SE17      30.33F
MINOT          SUNNY     70  45  40 SE14G24   30.29F
MINOT AFB      SUNNY     69  46  44 SE17      30.28F
GARRISON         N/A     68  46  45 SE16G24   30.29F
WILLISTON      SUNNY     74  43  32 SE16      30.20F
DICKINSON      SUNNY     70  43  37 SE20      30.23F
HETTINGER      SUNNY     73  44  35 SE17G25   30.26F
$$

 *****  OTHER OBSERVATIONS NORTHEAST NORTH DAKOTA  *****

CITY           SKY/WX    TMP DP  RH WIND       PRES   REMARKS
WALHALLA       FAIR      63  59  88 S15       30.42F
LANGDON        FAIR      64  52  63 S16       30.41F
CAVALIER       MOCLDY    63  48  59 S12G18    30.43F
GRAFTON        MOCLDY    63  48  59 SE9G16    30.45F
CANDO          FAIR      64  48  55 S17G25    30.41F
FORT TOTTEN      N/A     65  50  58 S8        29.95S
ROLLA          FAIR      64  43  45 S16G23    30.38F
RUGBY          FAIR      66  48  52 SE15G22   30.35F HAZE
 ***** THE ABOVE OBSERVATIONS ARE NON NWS ARE NOT QUALITY
        CONTROLLED AND MAY MIS-REPORT RAIN FOR SNOW...
$$

 *****  OTHER OBSERVATIONS SOUTHEAST NORTH DAKOTA *****

CITY           SKY/WX    TMP DP  RH WIND       PRES   REMARKS
COOPERSTOWN    FAIR      64  46  52 S13G21    30.42F
VALLEY CITY    FAIR      63  48  59 S10G21    30.44F
OAKES          NOT AVBL
GWINNER        FAIR      66  46  48 S9        30.43F
SHEYENNE NWR     N/A     65  46  51 S8        29.95S
BUFFALO        NOT AVBL
WYNDMERE       NOT AVBL
 ***** THE ABOVE OBSERVATIONS ARE NON NWS ARE NOT QUALITY
       CONTROLLED AND MAY MIS-REPORT RAIN FOR SNOW...
$$

  *****  WEATHER ACROSS NORTHERN MINNESOTA  *****

CITY           SKY/WX    TMP DP  RH WIND       PRES   REMARKS
FLAG ISLAND    PTSUNNY   59  46  63 S3        30.48F
WARROAD        CLOUDY    59  48  67 E9        30.49F
ROSEAU         MOSUNNY   63  48  59 S9        30.47F HAZE
HALLOCK        PTSUNNY   63  46  55 SE8       30.45F
THF RVR FALLS  PTSUNNY   63  45  51 S10G16    30.47F
HALSTAD          N/A     65  46  51 SW9         N/A
FOSSTON        PTSUNNY   64  43  45 S7        30.47F
BAUDETTE       CLOUDY    60  45  57 SE5       30.50F
WASKISH        CLOUDY    61  46  59 SE5       30.49F
CROOKSTON      MOSUNNY   64  46  52 S8G16     30.46F
$$
  *****  WEATHER ACROSS CENTRAL AND WEST MINNESOTA  *****

CITY           SKY/WX    TMP DP  RH WIND       PRES   REMARKS
BEMIDJI        CLOUDY    59  45  60 SE7       30.48F
PARK RAPIDS    CLOUDY    60  41  49 VRB3      30.48F
WADENA         CLOUDY    59  45  58 E5        30.48F
DETROIT LAKES  PTSUNNY   59  45  58 SW5       30.48F
MOORHEAD       SUNNY     63  45  51 SE6       30.45F
FERGUS FALLS   MOSUNNY   61  45  55 SE7       30.48F
ELBOW LAKE     CLOUDY    60  47  60 SE7       30.47F
MORRIS MN      PTSUNNY   64  46  52 E12       30.45F
STAPLES        CLOUDY    57  45  62 E3        30.48F
WHEATON        NOT AVBL
$$
  *****  WEATHER ELSEWHERE ACROSS MINNESOTA  *****

CITY           SKY/WX    TMP DP  RH WIND       PRES   REMARKS
DULUTH         CLOUDY    60  48  64 E13       30.50F
INTRNTL FALLS  CLOUDY    58  47  66 CALM      30.51F
ELY            CLOUDY    55  45  67 CALM      30.52F
CLOQUET        CLOUDY    59  45  58 E9        30.50S
BRAINERD       CLOUDY    59  47  64 SE5       30.49F
HIBBING        CLOUDY    57  46  66 SE7       30.51S
ALEXANDRIA     CLOUDY    60  47  61 E8        30.48F
SAINT CLOUD    PTSUNNY   62  49  62 N9        30.46F
MINNEAPOLIS    MOSUNNY   64  50  60 VRB3      30.45F
$$

  *****  WEATHER ACROSS SOUTH DAKOTA  *****

CITY           SKY/WX    TMP DP  RH WIND       PRES   REMARKS
SIOUX FALLS    MOSUNNY   66  49  54 VRB3      30.42F
BROOKINGS      SUNNY     62  47  57 NE5       30.42F
WATERTOWN      SUNNY     63  46  54 SE9       30.43F
HURON          SUNNY     66  47  50 SE9       30.41F
SISSETON         N/A     65  45  48 S13       30.43F
ABERDEEN       SUNNY     67  46  47 SE12G23   30.41F
MITCHELL       SUNNY     67  47  48 S8        30.42F
PIERRE         SUNNY     70  44  39 SE20G28   30.32F
MOBRIDGE       SUNNY     70  43  37 SE18      30.32F
RAPID CITY       N/A    N/A N/A N/A MISG      30.26F
$$

  *****  SOME WEATHER IN NEARBY STATES *****

CITY           SKY/WX    TMP DP  RH WIND       PRES   REMARKS
GLASGOW MT     SUNNY     75  46  35 SE14      30.08F
GREAT FALLS MT SUNNY     70  48  45 E6        30.06F
CHEYENNE WY    SUNNY     77  34  21 SE6       30.35F
SCOTTSBLUFF NE SUNNY     78  45  30 S18G25    30.28F
OMAHA NE       MOSUNNY   69  50  50 N8G18     30.39F
DES MOINES IA  MOSUNNY   72  49  44 N13       30.35F
DAVENPORT IA   SUNNY     73  52  47 N18G25    30.25F
CHICAGO IL     LGT RAIN  63  59  87 N15       30.18S
EAU CLAIRE WI  SUNNY     66  51  58 NE8       30.42F
LA CROSSE WI   SUNNY     71  54  54 NW10      30.37F
$$

  *****  SOME NATIONAL WEATHER *****

CITY           SKY/WX    TMP DP  RH WIND       PRES   REMARKS
LA GUARDIA NY  CLOUDY    65  52  62 E20       30.36S
RALEIGH NC     PTSUNNY   78  69  73 SE12      30.00F
ATLANTA GA     MOSUNNY   76  50  40 NW7G20    30.00F
NEW ORLEANS LA MOSUNNY   85  66  53 N12       30.05F
OKLAHOMA CITY  MOSUNNY   70  47  43 NE10      30.34F
ALBUQUERQUE NM PTSUNNY   78  41  26 VRB7G17   30.39F
SALT LAKE CITY PTSUNNY   76  46  34 S18G28    30.21F
LOS ANGELES CA MOSUNNY   79  65  62 W15       30.03S
BOISE ID       MOSUNNY   84  38  19 S13       30.02S
SEATTLE WA     PTSUNNY   60  48  64 W5        30.09F
$$

*** WEATHER ACROSS MANITOBA...SASKATCHEWAN AND ONTARIO ***
                ***ONTARIO***

CITY           SKY/WX    TMP DP  RH WIND       PRES   REMARKS
GERALDTON      PTSUNNY   59  48  67 W5        30.52F
THUNDER BAY    PTSUNNY   63  48  59 SE8       30.51F
SIOUX LOOKOUT  CLOUDY    55  45  67 S6        30.53F
TORONTO        CLOUDY    59  55  88 E18G26    30.31R
BIG TROUT LK   MOSUNNY   61  46  59 VRB6      30.47F
PICKLE LAKE    PTSUNNY   57  46  67 SW6       30.50F
DRYDEN         CLOUDY    55  45  67 S5        30.52F
KENORA         CLOUDY    57  43  58 S7        30.50F
$$
                *** MANITOBA***

CITY           SKY/WX    TMP DP  RH WIND       PRES   REMARKS
BRANDON        PTSUNNY   66  48  52 S13G18    30.35F
DAUPHIN        SUNNY     66  52  59 N3        30.31F
ISLAND LAKE    PTSUNNY   57  50  77 S6        30.44F
PILOT MOUND      N/A     64  48  55 S15G21      N/A
THE PAS        PTSUNNY   55  48  76 SE12G20   30.28F
THOMPSON       PTSUNNY   54  39  58 SE3       30.36F
WINNIPEG       MOSUNNY   64  48  55 S17       30.43F
LYNN LAKE      CLOUDY    61  37  41 SW12G18   30.29F
CHURCHILL      MOSUNNY   50  36  57 E7        30.31F
GILLAM         PTSUNNY   59  36  41 W12       30.39F
$$
                ***SASKATCHEWAN***

CITY           SKY/WX    TMP DP  RH WIND       PRES   REMARKS
ESTEVAN        NOT AVBL
KINDERSLEY     PTSUNNY   52  46  82 NE10      30.13R
LLOYDMINSTER   MOSUNNY   59  45  58 NE10      30.19F
PRINCE ALBERT  PTSUNNY   59  46  63 NE8       30.19F
REGINA         MOSUNNY   75  46  35 SE22G30   30.13F
YORKTON        SUNNY     66  45  45 S16G25    30.22F   C1F1C2F2C3F3C4F4C5F5C6F6C7F7C8F8C9F9CaFaCbFbCcFcCdFdCe!



USA.gov is the U.S. government's official web portal to all federal, state and local government web resources and services.